This demonstration page uses our WeatherBlox Daily Observations layout. Learn more.

Left ArrowRight Arrow

39.29038, -76.61219

Hourly Observations for December 22, 2020

Temp ( °F °C ) Dew Point ( °F °C ) Humidity (%) Winds ( mph kmh ) Pressure ( in mb ) Visibility ( mi km ) Precip ( " mm )
12:54 am 00:54 Mostly Cloudy 43 6.1 39 3.9 86 86 WSW 6 9 29.70 1006 9 14 0.01 0.25
1:54 am 01:54 Mostly Cloudy 43 6.1 37 2.8 80 80 W 9 15 29.72 1006 10 16 0.00 0.00
2:54 am 02:54 Partly Cloudy 42 5.6 35 1.7 76 76 WSW 7 11 29.72 1007 10 16 0.00 0.00
3:54 am 03:54 Mostly Clear 40 4.4 34 1.1 79 79 W 7 11 29.73 1007 10 16 0.00 0.00
4:54 am 04:54 Mostly Clear 40 4.4 33 0.6 77 77 SW 6 9 29.74 1007 10 16 0.00 0.00
5:54 am 05:54 Partly Cloudy 37 2.8 32 0 82 82 W 3 6 29.77 1008 10 16 0.00 0.00
6:54 am 06:54 Mostly Cloudy 39 3.9 32 0 76 76 WSW 9 15 29.79 1009 10 16 0.00 0.00
7:54 am 07:54 Mostly Cloudy 42 5.6 32 0 68 68 W 14 22 29.83 1010 10 16 0.00 0.00
8:54 am 08:54 Mostly Cloudy 44 6.7 33 0.6 65 65 W 14 22 29.87 1012 10 16 0.00 0.00
9:54 am 09:54 Mostly Cloudy 45 7.2 33 0.6 63 63 W 14 22 29.91 1013 10 16 0.00 0.00
10:54 am 10:54 Mostly Cloudy 47 8.3 33 0.6 59 59 W 21 33 29.94 1014 10 16 0.00 0.00
11:54 am 11:54 Mostly Cloudy 47 8.3 32 0 56 56 WNW 20 31 29.96 1015 10 16 0.00 0.00
12:54 pm 12:54 Mostly Cloudy 48 8.9 32 0 54 54 W 20 31 29.99 1016 10 16 0.00 0.00
1:54 pm 13:54 Mostly Cloudy 49 9.4 31 -0.6 50 50 W 18 30 30.01 1016 10 16 0.00 0.00
2:54 pm 14:54 Mostly Cloudy 48 8.9 31 -0.6 52 52 WNW 23 37 30.04 1017 10 16 0.00 0.00
3:54 pm 15:54 Partly Cloudy 47 8.3 29 -1.7 50 50 WNW 16 26 30.08 1019 10 16 0.00 0.00
4:54 pm 16:54 Partly Cloudy 46 7.8 28 -2.2 50 50 WNW 10 17 30.12 1020 10 16 0.00 0.00
5:54 pm 17:54 Mostly Clear 44 6.7 28 -2.2 53 53 WSW 7 11 30.14 1021 10 16 0.00 0.00
6:54 pm 18:54 Mostly Clear 43 6.1 28 -2.2 56 56 W 12 19 30.17 1022 10 16 0.00 0.00
7:54 pm 19:54 Clear 42 5.6 28 -2.2 58 58 W 9 15 30.21 1023 10 16 0.00 0.00
8:54 pm 20:54 Partly Cloudy 41 5 28 -2.2 60 60 W 9 15 30.24 1024 10 16 0.00 0.00
9:54 pm 21:54 Mostly Clear 40 4.4 28 -2.2 63 63 WSW 7 11 30.27 1025 10 16 0.00 0.00
10:54 pm 22:54 Mostly Clear 39 3.9 28 -2.2 65 65 W 8 13 30.29 1026 10 16 0.00 0.00
11:54 pm 23:54 Clear 38 3.3 28 -2.2 68 68 W 3 6 30.29 1026 10 16 0.00 0.00

Powered by AerisWeather